[[{"header":{"parameterUnit":"m.s-1","parameterCategory":1,"la1":30.2991,"la2":30.254,"lo1":-89.0895,"lo2":-89.0444,"dy":0.0017,"dx":0.0017,"nx":28,"ny":28,"refTime":"2024-05-06T21:00:00:Z","depth":0,"parameterNumber":2,"parameterNumberName":"U-component_of_WINDS"},"data":[0,0,0,0,0,0,0,0,0,0,0,0,0,0,0,0,0,0,0,0,0,0,0,0,0,0,0,0,0,0,0,0,0,0,0,0,0,0,0,0,0,0,0,0,0,0,0,0,0,0,0,0,0,0,0,0,0,0,0.1195,0.1195,0,0.1245,0.1245,0.1246,0.1259,0.1259,0.1259,0.1258,0.1309,0.1311,0.1312,0,0,0,0,0,0,0,0,0,0,0,0,0,0.1109,0.111,0.1195,0.1195,0.1196,0.1245,0.1245,0.1246,0.1259,0.1259,0.1259,0.1258,0.1308,0.131,0.1312,0,0,0,0,0,0,0,0,0,0,0,0,0,0.1151,0.1111,0.1194,0.1208,0.121,0.1244,0.1245,0.1246,0.1259,0.1259,0.1258,0.1258,0.1308,0.131,0.1313,0.1337,0,0,0.132,0.1321,0,0,0,0,0,0,0,0,0.1149,0.1154,0.1206,0.1207,0.1209,0.1245,0.1234,0.1276,0.1259,0.1241,0.1258,0.1258,0.1288,0.1292,0.1303,0.1339,0.1341,0.132,0.1322,0.1323,0.1323,0,0,0,0,0,0,0,0.1146,0.1152,0.1214,0.1206,0.1209,0.1211,0.1217,0.1242,0.1266,0.1242,0.1243,0.1249,0.1289,0.13,0.1304,0.1342,0.132,0.1322,0.1324,0.1325,0.1399,0.1399,0,0,0,0,0,0,0.114,0.1149,0.1213,0.1216,0.1177,0.1213,0.122,0.1234,0.1266,0.127,0.1249,0.125,0.1296,0.1301,0.1306,0.1335,0.1323,0.1325,0.1326,0.1398,0.1399,0.14,0,0,0,0,0,0,0.1139,0.1146,0.1211,0.1183,0.1191,0.1215,0.1232,0.1235,0.1247,0.1271,0.1276,0.1256,0.1296,0.1302,0.1328,0.1337,0.1326,0.1328,0.1398,0.1399,0.1399,0.1394,0,0,0,0,0,0,0.1136,0.1145,0.1155,0.1183,0.1193,0.1233,0.1232,0.1237,0.1251,0.1251,0.1279,0.1283,0.1296,0.1325,0.1331,0.134,0.133,0.1397,0.1398,0.1399,0.1394,0.1395,0.1395,0,0,0,0,0,0.1133,0.1152,0.1156,0.1163,0.1206,0.1234,0.1239,0.1254,0.1251,0.1261,0.1277,0.1282,0.1335,0.1327,0.1334,0.1344,0.1397,0.1398,0.1399,0.1393,0.1394,0.1395,0,0,0,0,0,0,0.1124,0.1156,0.116,0.1189,0.1208,0.1236,0.1249,0.1255,0.1276,0.1275,0.1292,0.1298,0.1323,0.1337,0.1328,0.1368,0.1366,0.1368,0.1359,0.136,0.1361,0.1357,0.1332,0,0,0,0,0,0.1125,0.1146,0.1172,0.1195,0.1205,0.1225,0.1238,0.1247,0.1268,0.1276,0.1294,0.1314,0.1335,0.1348,0.1369,0.1395,0.1401,0.1406,0.1406,0.1407,0.1409,0.1423,0.1425,0.1403,0.1403,0.1403,0,0,0.1128,0.1148,0.116,0.1194,0.121,0.123,0.1232,0.1253,0.1268,0.128,0.1305,0.1319,0.1342,0.1368,0.1381,0.138,0.1416,0.1409,0.1409,0.1411,0.1424,0.1426,0.1428,0.1404,0.1404,0.1404,0,0,0.1144,0.1162,0.1182,0.1198,0.1223,0.1236,0.1241,0.1267,0.1277,0.1303,0.1311,0.1329,0.1365,0.1381,0.1393,0.1413,0.1419,0.142,0.1424,0.1438,0.1439,0.1441,0.1447,0.1449,0.1422,0.1422,0.1422,0,0.1145,0.1176,0.1191,0.1212,0.1226,0.1237,0.1257,0.1272,0.1302,0.1311,0.131,0.1354,0.1371,0.14,0.1405,0.1415,0.1421,0.1417,0.1438,0.144,0.1441,0.1448,0.145,0.1422,0.1422,0.1422,0.1422,0,0.1175,0.1197,0.121,0.1238,0.1254,0.1274,0.1292,0.1306,0.1313,0.1326,0.1352,0.1372,0.1396,0.1404,0.1412,0.1434,0.1433,0.1435,0.1432,0.1443,0.1449,0.1452,0.1421,0.1421,0.1421,0.1421,0,0,0.1187,0.1223,0.1228,0.1241,0.1268,0.1285,0.1305,0.1329,0.134,0.136,0.1376,0.1406,0.1407,0.1422,0.1431,0.1443,0.1457,0.1443,0.1444,0.1444,0.1481,0.1479,0.1482,0.146,0.1461,0.1461,0.1479,0,0.1206,0.1243,0.1257,0.1287,0.1307,0.1317,0.1334,0.1352,0.1365,0.1382,0.1396,0.1416,0.1417,0.1426,0.1438,0.1452,0.1464,0.1451,0.1475,0.1476,0.1469,0.1485,0.1484,0.15,0.1481,0.1482,0.1482,0,0.1233,0.1253,0.1285,0.1309,0.1318,0.1334,0.1356,0.1373,0.1393,0.1401,0.1417,0.1425,0.1446,0.1442,0.1471,0.1462,0.1472,0.1481,0.1482,0.1484,0.148,0.1488,0.1505,0.1507,0.1486,0.1486,0.1486,0,0.1238,0.1273,0.1296,0.1307,0.1336,0.1346,0.1359,0.1379,0.1392,0.1411,0.1419,0.1441,0.1452,0.1468,0.1482,0.1478,0.1509,0.1506,0.1515,0.1515,0.1521,0.1521,0.154,0.1529,0.1529,0.1529,0.1529,0,0.1257,0.1276,0.1299,0.1313,0.1334,0.135,0.137,0.1383,0.14,0.1417,0.1427,0.1442,0.1459,0.1476,0.1487,0.1508,0.1514,0.152,0.1523,0.1519,0.1518,0.1526,0.1526,0.1529,0.1529,0.1529,0.1529,0,0.1266,0.1282,0.1308,0.1333,0.134,0.1354,0.1375,0.1389,0.1401,0.1422,0.1428,0.1447,0.1468,0.1483,0.151,0.1517,0.1539,0.1542,0.1532,0.1534,0.1542,0.154,0.1567,0.157,0.1557,0.1557,0.1557,0,0.1277,0.1292,0.1318,0.133,0.1342,0.1361,0.1375,0.139,0.1403,0.1426,0.1437,0.1458,0.1476,0.1508,0.1525,0.1545,0.1548,0.1556,0.1551,0.1546,0.1547,0.1546,0.1547,0.1556,0.1556,0.1556,0.1556,0,0.1295,0.1302,0.1321,0.1342,0.1357,0.1375,0.1393,0.1401,0.1419,0.1434,0.1455,0.1468,0.1495,0.1516,0.1537,0.155,0.1556,0.1558,0.1561,0.1557,0.155,0.1553,0.1534,0.1557,0.1557,0.1557,0.1557,0.1557,0.1305,0.1318,0.1338,0.1359,0.1373,0.1389,0.1403,0.1417,0.1435,0.1458,0.1466,0.1488,0.1506,0.1536,0.1548,0.1565,0.1565,0.1569,0.157,0.1571,0.1571,0.1548,0.1569,0.1569,0.1569,0.1569,0.1569,0,0.1322,0.1336,0.1354,0.1379,0.1394,0.1399,0.1418,0.1431,0.145,0.1467,0.1484,0.1508,0.1527,0.1545,0.1565,0.1575,0.1578,0.158,0.1579,0.1581,0.157,0.1565,0.1577,0.1577,0.1577,0.1577,0.1577,0.1577,0.1333,0.1356,0.1365,0.1394,0.1407,0.1429,0.1439,0.1454,0.1467,0.1493,0.151,0.1521,0.1538,0.1559,0.1577,0.1582,0.1589,0.1589,0.1594,0.1583,0.1582,0.1581,0.1577,0.1591,0.1591,0.1605,0.1605,0.1605]},{"header":{"parameterUnit":"m.s-1","parameterCategory":1,"la1":30.2991,"la2":30.254,"lo1":-89.0895,"lo2":-89.0444,"dy":0.0017,"dx":0.0017,"nx":28,"ny":28,"refTime":"2024-05-06T21:00:00:Z","depth":0,"parameterNumber":3,"parameterNumberName":"V-component_of_WINDS"},"data":[0,0,0,0,0,0,0,0,0,0,0,0,0,0,0,0,0,0,0,0,0,0,0,0,0,0,0,0,0,0,0,0,0,0,0,0,0,0,0,0,0,0,0,0,0,0,0,0,0,0,0,0,0,0,0,0,0,0,6.3296,6.3297,0,6.3429,6.343,6.3432,6.34,6.3397,6.3395,6.3392,6.3521,6.3527,6.3533,0,0,0,0,0,0,0,0,0,0,0,0,0,6.3007,6.3013,6.3296,6.3297,6.3299,6.3428,6.343,6.3432,6.34,6.3397,6.3394,6.3391,6.3519,6.3526,6.3533,0,0,0,0,0,0,0,0,0,0,0,0,0,6.3136,6.3015,6.3295,6.3299,6.3301,6.3428,6.343,6.3432,6.3401,6.3397,6.3393,6.339,6.3517,6.3526,6.3534,6.3664,0,0,6.3561,6.3564,0,0,0,0,0,0,0,0,6.3128,6.3146,6.3297,6.3299,6.3301,6.3394,6.3376,6.351,6.3402,6.3363,6.3392,6.3388,6.3481,6.3493,6.3526,6.367,6.3675,6.3561,6.3567,6.357,6.3573,0,0,0,0,0,0,0,6.312,6.314,6.3348,6.3299,6.3302,6.3292,6.3306,6.3401,6.3441,6.3366,6.3364,6.338,6.3482,6.3518,6.3529,6.3677,6.3561,6.3569,6.3574,6.3578,6.3933,6.3937,0,0,0,0,0,0,6.311,6.3133,6.3344,6.3352,6.3204,6.33,6.3316,6.3368,6.344,6.3448,6.3384,6.3378,6.3505,6.3519,6.3533,6.3689,6.357,6.3579,6.3583,6.3929,6.3934,6.3939,0,0,0,0,0,0,6.3104,6.3129,6.3338,6.3242,6.3268,6.3309,6.3368,6.3372,6.3408,6.3454,6.346,6.3413,6.3502,6.3521,6.3632,6.3693,6.3582,6.359,6.3924,6.3931,6.3936,6.4003,0,0,0,0,0,0,6.3096,6.3127,6.3178,6.3244,6.3273,6.3437,6.3372,6.3378,6.3424,6.3419,6.3483,6.349,6.3501,6.3619,6.3641,6.3703,6.3597,6.3919,6.3927,6.3934,6.3995,6.4011,6.4024,0,0,0,0,0,6.3086,6.319,6.3181,6.3207,6.3339,6.3441,6.3458,6.347,6.3429,6.348,6.3509,6.3488,6.3683,6.3631,6.3655,6.3721,6.3915,6.3925,6.3934,6.3989,6.4008,6.4023,0,0,0,0,0,0,6.3129,6.3199,6.319,6.3319,6.3375,6.3436,6.35,6.3489,6.3555,6.3547,6.3557,6.3571,6.3685,6.3714,6.3654,6.385,6.3793,6.3808,6.3827,6.3845,6.3859,6.3849,6.3604,0,0,0,0,0,6.3154,6.3233,6.3289,6.3398,6.3427,6.3459,6.3504,6.3508,6.3565,6.3588,6.3625,6.3679,6.3752,6.38,6.387,6.4,6.4012,6.4057,6.4071,6.4082,6.4095,6.4164,6.4184,6.397,6.397,6.397,0,0,6.3205,6.3254,6.3303,6.3408,6.3452,6.3531,6.3479,6.3565,6.3624,6.36,6.3708,6.3737,6.3797,6.3918,6.3973,6.3946,6.4157,6.4095,6.4103,6.4109,6.4176,6.4196,6.4214,6.3976,6.3975,6.3974,0,0,6.334,6.3386,6.3481,6.3526,6.3594,6.3614,6.3637,6.3701,6.372,6.3829,6.3812,6.3881,6.4007,6.4051,6.409,6.4242,6.4224,6.4264,6.4338,6.4406,6.4423,6.4438,6.4491,6.451,6.4276,6.4277,6.4277,0,6.3395,6.3517,6.3531,6.362,6.3666,6.365,6.3746,6.3788,6.3874,6.3905,6.3874,6.4032,6.4072,6.4203,6.424,6.4272,6.4297,6.4256,6.442,6.4435,6.4449,6.45,6.452,6.4281,6.428,6.428,6.428,0,6.3581,6.3666,6.3734,6.382,6.3874,6.3966,6.3991,6.4043,6.4043,6.4066,6.4176,6.4224,6.4303,6.4335,6.4334,6.4465,6.4446,6.4417,6.436,6.4474,6.4521,6.4541,6.4287,6.4286,6.4284,6.4283,0,0,6.3746,6.3839,6.3864,6.3903,6.3976,6.4041,6.4131,6.4211,6.4255,6.4315,6.4389,6.4497,6.4471,6.4515,6.452,6.4579,6.4696,6.4543,6.4545,6.4569,6.4841,6.4861,6.4884,6.4685,6.4689,6.4692,6.4836,0,6.3886,6.4048,6.4063,6.4207,6.4284,6.4271,6.4349,6.4401,6.4426,6.4493,6.4519,6.4595,6.4556,6.4582,6.4641,6.4669,6.475,6.4659,6.4752,6.4755,6.4737,6.4909,6.4931,6.5065,6.4854,6.4858,6.486,0,6.4072,6.414,6.4293,6.4355,6.4388,6.4459,6.4533,6.4599,6.4657,6.467,6.472,6.4717,6.4807,6.4748,6.4871,6.4809,6.4848,6.4867,6.4873,6.4881,6.4814,6.4921,6.5108,6.5127,6.489,6.4887,6.4885,0,6.4176,6.4305,6.4413,6.4447,6.4523,6.4573,6.4606,6.4661,6.4708,6.4772,6.4802,6.4875,6.4915,6.497,6.4986,6.4941,6.5109,6.5051,6.512,6.512,6.5155,6.5153,6.535,6.5182,6.5182,6.5181,6.5181,0,6.4331,6.4425,6.4461,6.4527,6.4631,6.4646,6.4748,6.4778,6.4827,6.4897,6.4889,6.4955,6.4972,6.504,6.5052,6.5152,6.517,6.5182,6.5184,6.5182,6.5181,6.5207,6.5198,6.5187,6.5186,6.5185,6.5184,0,6.4464,6.4493,6.461,6.4673,6.4691,6.4764,6.4817,6.488,6.4903,6.4992,6.5013,6.5049,6.5129,6.5151,6.5245,6.5253,6.5371,6.5364,6.5352,6.5351,6.542,6.5413,6.564,6.567,6.5483,6.5485,6.5487,0,6.4561,6.4633,6.4705,6.4753,6.4789,6.4866,6.4914,6.4932,6.4982,6.5054,6.5108,6.5187,6.5251,6.5379,6.5412,6.5484,6.5478,6.5553,6.5489,6.5485,6.5478,6.5474,6.548,6.5565,6.5567,6.5568,6.557,0,6.473,6.474,6.4812,6.4889,6.4948,6.5009,6.5067,6.5105,6.513,6.5187,6.527,6.532,6.5418,6.5496,6.5569,6.5601,6.5589,6.559,6.561,6.5608,6.5598,6.5604,6.5384,6.5584,6.5583,6.5582,6.5581,6.558,6.4847,6.491,6.4971,6.5051,6.5097,6.5151,6.5214,6.5246,6.5316,6.5398,6.5404,6.5493,6.5548,6.5646,6.5682,6.5751,6.5728,6.5757,6.5764,6.5771,6.5776,6.5588,6.5764,6.5763,6.5763,6.5763,6.5763,0,6.5014,6.5053,6.5126,6.5209,6.5272,6.5258,6.5321,6.5374,6.5454,6.5508,6.5572,6.5666,6.5742,6.5782,6.5856,6.5904,6.59,6.5923,6.5919,6.5926,6.5792,6.5768,6.5924,6.5924,6.5924,6.5924,6.5924,6.5924,6.5108,6.5215,6.5233,6.5361,6.5398,6.5488,6.5525,6.5575,6.5618,6.5725,6.5789,6.5815,6.5863,6.5941,6.6009,6.6019,6.6046,6.6071,6.6078,6.5952,6.5935,6.592,6.5896,6.6077,6.6078,6.6205,6.6207,6.6208]}]]